GFSSE_con_sbcape_276.txt.gz
CAPE
0 0 0 7 14 22 15 14 42 123 355 1214 1561 1601 1738 1855 1873 1924 1942 2015 2203 2313 1787 1872 1898 1904 1852 1662 1881 2046 1855 1848 1551 1981 2059 2230 1907 2003 1998 2182 2074 1796 2021
0 0 0 5 8 14 15 12 12 59 142 349 1288 1457 1564 1778 1793 1787 1927 2013 2150 1945 1665 1683 1647 1783 1834 1645 1713 1685 1507 1556 1571 1978 2235 2034 2227 1992 1948 2077 1959 1915 1906
0 0 0 3 6 8 6 9 9 24 82 174 490 1311 1511 1830 1888 1765 1731 1951 2101 2193 1769 1611 1737 1870 1910 1795 1638 1522 1351 1450 1498 1951 2092 1358 1525 2055 1931 2111 2091 1994 1815
0 0 0 0 2 5 6 7 5 12 19 44 108 277 1213 1725 2017 1930 1712 1719 2119 2373 1946 1746 1789 2036 1818 1708 1595 1436 1404 1374 1386 1260 797 988 1305 2008 1909 1960 2223 1990 1913
0 0 0 0 2 3 4 8 6 7 8 10 16 75 214 916 1597 2154 1830 1564 1996 2439 2144 1961 2055 2333 1497 1375 1437 1258 1127 1071 869 395 347 978 1494 1858 1773 2077 2117 2092 1787
0 0 0 0 1 4 5 3 6 12 10 10 10 17 78 218 638 1489 1798 1592 1865 2474 2533 2509 2490 1910 1262 1203 1285 1128 791 739 234 156 713 1443 1354 1856 1752 2031 1967 1957 1753
0 0 0 0 0 0 3 4 5 20 18 8 13 16 16 22 65 570 1488 1645 1681 2273 2528 2535 2342 1730 1172 1033 1141 994 673 545 151 300 811 1099 1407 2085 1813 1749 1813 1965 1832
0 0 0 0 0 0 0 2 5 2 5 14 25 11 15 14 17 14 113 991 1468 1763 2198 2153 2061 1636 1292 992 1039 1011 647 547 521 465 573 1114 1821 2099 1809 1702 1840 1799 1781
0 0 0 0 0 0 0 0 0 0 0 7 22 12 12 11 12 18 9 3 416 1367 1895 1933 1884 1489 1394 1093 848 870 586 583 545 149 902 1118 2074 2255 1822 1700 1815 1721 1667
0 0 0 0 0 0 0 0 0 0 0 3 30 37 27 15 12 10 12 9 6 107 1507 1860 1773 1365 1408 1218 971 829 560 346 469 350 523 1058 1999 2288 1641 1656 1634 1687 1543
0 0 0 0 0 0 0 0 0 0 0 0 0 0 4 16 17 12 13 15 6 4 6 1445 1651 1464 1261 1125 1139 510 497 555 282 496 519 452 2038 2189 1848 1728 1654 1580 1463
0 0 0 0 0 0 0 0 0 0 0 0 0 0 0 9 14 24 19 17 10 3 4 23 1224 1122 1103 1013 928 449 471 429 273 24 7 540 1621 2232 1937 1807 1568 1444 1368
0 0 0 0 0 0 0 0 0 0 0 0 0 0 0 0 5 16 21 13 14 7 3 3 116 857 1133 1165 718 443 497 318 352 260 284 429 1098 2047 1998 1754 1477 1289 1234
0 0 0 0 0 0 0 0 0 0 0 0 0 0 0 0 0 4 14 10 31 21 6 5 3 417 978 979 761 613 517 357 217 391 390 104 178 1560 2126 1825 1505 1221 1206
0 0 0 0 0 0 0 0 0 0 0 0 0 0 0 0 0 1 10 13 13 15 17 12 6 4 737 817 886 789 478 408 232 323 18 50 13 736 1748 1647 1489 1236 1038
0 0 0 0 0 0 0 0 0 0 0 0 0 0 0 0 0 0 7 15 20 10 12 36 11 7 143 947 819 685 472 304 135 218 118 8 166 133 695 1370 1505 1475 1093
0 0 0 0 0 0 0 0 0 0 0 0 0 0 0 0 0 2 0 11 12 21 15 14 6 24 103 434 731 550 538 248 180 32 192 14 0 0 0 772 912 1076 1219
0 0 0 0 0 0 0 0 0 0 0 0 0 0 0 0 0 1 0 2 9 11 19 11 10 17 17 165 222 276 415 248 176 204 84 376 102 3 2 485 726 717 772
0 0 0 0 0 0 0 0 0 0 0 0 0 0 0 0 0 1 0 0 1 11 15 17 9 13 6 6 49 110 132 212 175 135 192 432 395 302 188 275 567 621 514
0 0 0 0 0 0 0 0 0 0 0 0 0 0 0 0 0 5 0 2 0 10 14 15 11 6 5 6 48 102 68 76 159 41 61 69 340 524 481 389 352 440 265
0 0 0 0 0 0 0 0 0 0 0 0 0 0 0 0 0 0 15 5 1 9 15 16 14 9 7 5 4 41 26 44 71 193 66 78 264 339 513 521 493 455 209
0 0 0 0 0 0 0 0 0 0 0 0 0 0 0 0 2 3 1 2 2 10 16 3 18 9 14 14 11 6 19 10 25 111 154 30 14 134 371 487 473 477 374
0 0 0 0 0 0 0 0 0 0 0 0 0 0 0 1 2 4 1 0 2 14 16 2 14 16 9 11 7 9 18 40 6 87 175 142 4 7 245 384 463 443 293
0 0 0 0 0 0 0 0 0 0 0 0 0 0 0 0 2 5 1 0 3 24 15 12 14 16 16 9 9 9 7 6 19 38 75 78 119 89 138 297 327 360 203
0 0 0 0 0 0 0 0 0 0 0 0 0 0 0 5 1 1 7 0 0 19 17 13 12 5 16 14 13 10 5 2 0 17 46 75 31 60 177 209 370 253 212
0 0 0 0 0 0 0 0 0 0 0 0 0 0 0 0 7 6 11 5 0 3 15 4 5 8 9 13 16 13 11 11 6 9 37 19 42 30 40 307 368 297 240

GFSSE_con_sbcape_279.txt.gz
CAPE
0 0 0 3 6 13 13 13 15 31 98 212 637 1120 1235 1556 1694 1640 1766 2013 2242 2179 1981 2017 1752 1793 1714 1547 1456 1598 1582 1699 1746 1446 1935 1938 1888 1896 1806 1960 1821 1393 1916
0 0 0 8 16 17 15 21 17 19 27 78 166 333 930 987 1460 1639 1808 1872 2099 1910 1856 1942 1780 1642 1755 1694 1690 1620 1648 1537 1479 1740 1948 2049 2088 1934 1961 1989 1834 1602 1777
0 0 0 7 13 13 13 10 23 25 24 24 51 130 293 871 1021 1580 1766 1939 2101 1959 1710 1752 1760 1788 1887 1717 1602 1526 1517 1503 1367 1889 1904 1097 1458 1883 1816 1989 1948 1812 1804
0 0 0 5 9 14 17 13 21 32 22 26 26 30 73 263 740 1048 1584 1761 2095 2132 1903 1650 1657 1901 2154 1667 1495 1165 1378 1266 1321 1710 986 1073 1342 1835 1730 1720 1900 1848 2039
0 0 0 0 2 11 15 14 12 14 26 26 28 22 29 41 112 314 1068 1464 1791 2224 2128 1871 1770 2431 1941 1450 1298 1260 1216 1228 1019 702 580 725 1143 1417 1739 1665 1812 1872 1988
0 0 0 0 0 4 3 5 9 10 12 30 25 23 27 28 23 41 253 1059 1480 1964 2334 2289 2425 2185 1467 1285 1147 1086 1054 931 391 283 656 1361 1136 1672 1654 1630 1705 1902 1955
0 0 0 0 0 0 1 1 9 15 19 22 47 42 35 30 30 24 20 128 715 1355 2110 2242 2349 1914 1353 1177 1113 902 762 506 106 457 900 916 1070 2009 1664 1574 1709 1898 1917
0 0 0 0 0 0 0 0 3 5 17 12 4 10 19 24 25 30 26 25 35 206 824 1812 2079 1925 1316 1110 1035 816 558 434 349 519 781 861 1514 2052 1641 1403 1562 1731 1796
0 0 0 0 0 0 0 0 0 0 0 0 0 0 1 9 13 24 26 29 23 12 175 660 1712 1870 1386 1079 873 825 477 472 406 363 864 876 1879 2066 1644 1406 1538 1747 1755
0 0 0 0 0 0 0 0 0 0 0 0 0 0 0 0 11 9 15 26 33 23 11 73 265 1409 1310 1021 670 689 626 471 297 211 896 1125 1777 2065 1605 1653 1700 1759 1610
0 0 0 0 0 0 0 0 0 0 0 0 0 0 0 0 0 15 18 29 32 34 21 8 4 350 1284 1044 682 496 460 446 349 192 628 1081 1572 2128 1637 1788 1700 1681 1544
0 0 0 0 0 0 0 0 0 0 0 0 0 0 0 0 0 2 19 26 28 26 28 19 6 14 545 912 656 461 490 511 355 246 421 816 1528 1825 1833 1724 1677 1625 1445
0 0 0 0 0 0 0 0 0 0 0 0 0 0 0 0 0 0 5 25 26 24 21 18 6 6 17 994 923 630 485 528 407 293 118 489 1287 1879 1743 1654 1693 1578 1425
0 0 0 0 0 0 0 0 0 0 0 0 0 0 0 0 0 0 1 9 18 24 19 21 23 11 4 3 1005 735 463 434 413 120 79 320 721 1780 1913 1744 1486 1528 1452
0 0 0 0 0 0 0 0 0 0 0 0 0 0 0 0 0 0 1 1 11 12 14 10 28 14 11 3 68 717 514 399 377 364 195 217 304 706 1812 1901 1473 1337 1309
0 0 0 0 0 0 0 0 0 0 0 0 0 0 0 0 0 0 3 2 1 9 9 14 14 10 11 6 4 775 622 454 319 369 120 103 74 55 29 1089 1682 1578 1009
0 0 0 0 0 0 0 0 0 0 0 0 0 0 0 0 0 0 2 0 4 4 14 11 10 10 12 14 3 646 532 342 296 342 127 32 0 0 107 271 1023 1614 1403
0 0 0 0 0 0 0 0 0 0 0 0 0 0 0 0 0 0 2 2 1 6 15 18 10 9 8 9 4 103 395 271 232 221 94 57 22 85 96 371 760 1240 1123
0 0 0 0 0 0 0 0 0 0 0 0 0 0 0 0 0 0 3 1 2 10 13 11 12 13 6 7 7 5 262 233 226 107 153 36 17 18 31 9 2 508 813
0 0 0 0 0 0 0 0 0 0 0 0 0 0 0 0 0 0 0 0 2 6 12 2 7 9 9 16 7 2 93 105 151 187 121 162 10 0 7 0 0 13 322
0 0 0 0 0 0 0 0 0 0 0 0 0 0 0 0 0 0 0 0 4 8 11 9 17 14 8 7 4 1 5 48 84 95 88 178 268 33 21 62 0 44 173
0 0 0 0 0 0 0 0 0 0 0 0 0 0 0 0 0 0 0 1 5 7 19 17 16 14 7 11 13 7 23 32 41 66 73 65 160 234 268 300 9 25 362
0 0 0 0 0 0 0 0 0 0 0 0 0 0 0 0 3 1 2 0 7 6 22 18 15 16 13 11 7 11 2 33 42 17 130 80 65 134 251 339 47 149 397
0 0 0 0 0 0 0 0 0 0 0 0 0 0 0 0 1 6 17 10 5 10 11 15 11 8 12 12 8 15 6 9 8 73 84 166 55 88 209 316 329 305 268
0 0 0 0 0 0 0 0 0 0 0 0 0 0 0 0 0 10 26 28 12 7 4 19 4 0 7 12 13 13 7 8 6 5 46 91 74 66 56 166 317 359 301
0 0 0 0 0 0 0 0 0 0 0 0 0 0 0 0 0 0 28 34 30 28 25 9 0 0 8 12 14 12 16 14 10 8 5 1 73 56 119 156 211 268 274

GFSSE_con_sbcape_285.txt.gz
CAPE
0 0 0 17 26 22 28 28 27 23 43 41 32 27 26 44 86 169 621 899 989 1223 1693 1776 1831 1861 1643 1595 1640 1502 1564 1630 1170 1508 1765 1520 1443 1240 1277 1668 1719 1322 1623
0 0 0 10 17 18 26 21 22 27 18 17 20 30 35 27 29 38 130 531 882 932 1295 1638 1700 1712 1725 1651 1459 1262 1567 1380 1226 1492 1899 1560 1478 1486 1576 1855 1610 1481 1684
0 0 0 1 7 13 15 18 14 15 14 12 9 9 23 31 33 34 39 51 431 989 979 1353 1808 1827 1835 1807 1252 1341 1461 1446 1399 1665 1771 1462 1399 1758 1482 1796 1873 1979 2027
0 0 0 0 0 7 8 9 11 12 11 10 10 7 5 17 23 24 44 43 33 377 1106 1224 1453 1683 1902 1958 1442 1380 1259 1453 1459 1595 1463 1435 1457 1793 1458 1809 2052 2075 1978
0 0 0 0 0 0 3 5 11 10 10 11 9 6 5 2 4 12 20 38 47 48 285 1039 1194 1485 1467 1590 1412 1280 1356 1257 1319 1263 1487 1417 1456 1631 1544 1519 1750 1815 1416
0 0 0 0 0 0 0 0 5 12 12 8 6 5 2 0 2 4 8 24 33 41 47 59 546 1021 970 1358 1309 1201 1222 1233 1130 1405 1367 1481 1399 1672 1604 1598 1270 1328 1318
0 0 0 0 0 0 0 0 6 10 9 9 4 2 1 0 0 1 6 17 27 30 44 36 19 43 728 994 1220 1138 1129 1197 1321 1607 1369 1509 1477 1792 1653 1624 1549 1444 1348
0 0 0 0 0 0 0 1 5 11 9 5 1 0 0 0 0 0 4 8 17 28 33 25 28 16 12 508 920 1101 1079 1055 1221 1606 1318 1310 1614 1715 1616 1668 1719 1572 1422
0 0 0 0 0 0 0 0 0 4 2 1 1 0 0 0 0 2 4 8 12 19 33 33 26 16 15 3 620 903 944 847 1462 1624 1413 1549 1654 1782 1607 1595 1702 1788 1757
0 0 0 0 0 0 0 0 0 0 0 0 0 0 0 0 1 1 3 10 14 14 19 25 28 24 20 5 85 703 739 587 1498 1617 1623 1115 1541 1648 1588 1728 1752 1647 1513
0 0 0 0 0 0 0 0 0 0 0 0 0 0 0 0 0 0 3 8 14 11 13 20 25 28 14 15 8 578 542 1296 1339 1675 1891 1132 1622 1855 1623 1800 1695 1576 1564
0 0 0 0 0 0 0 0 0 0 0 0 0 0 0 0 0 0 1 3 9 10 11 10 18 21 17 10 18 22 1132 1215 1273 1605 1881 1040 1606 1798 1714 1795 1542 1586 1518
0 0 0 0 0 0 0 0 0 0 0 0 0 0 0 0 0 0 0 0 0 4 7 4 8 14 13 13 13 21 107 1104 1082 1378 1523 896 1487 1856 1752 1633 1570 1578 1448
0 0 0 0 0 0 0 0 0 0 0 0 0 0 0 0 0 0 2 0 0 0 7 9 19 9 13 7 5 12 13 246 968 1121 1621 668 1175 1680 1925 1546 1592 1643 1446
0 0 0 0 0 0 0 0 0 0 0 0 0 0 0 0 1 2 4 2 2 1 7 4 20 22 7 9 9 3 18 5 713 1033 1290 386 818 1288 1871 1902 1508 1566 1571
0 0 0 0 0 0 0 0 0 0 0 0 0 0 1 3 7 7 9 8 7 8 8 8 10 16 19 16 10 2 22 8 7 937 977 688 425 984 1406 1699 1732 1813 1623
0 0 0 0 0 0 0 0 0 0 0 0 0 0 0 3 8 13 8 9 8 13 8 4 3 12 10 18 7 15 14 12 2 492 1048 751 463 425 957 1117 1280 1596 1613
0 0 0 0 0 0 0 0 0 0 0 0 0 0 0 1 6 6 7 7 15 7 9 6 8 7 12 11 15 9 7 10 2 9 709 1013 401 529 470 569 926 1162 1149
0 0 0 0 0 0 0 0 0 0 0 0 0 0 0 1 4 6 7 16 18 16 10 12 5 17 12 13 19 14 8 5 1 11 575 625 503 709 522 285 450 707 788
0 0 0 0 0 0 0 0 0 0 0 0 0 0 2 6 3 11 11 33 30 21 21 27 18 11 8 16 10 10 11 4 5 5 375 335 445 276 862 535 363 435 472
0 0 0 0 0 0 0 0 0 0 0 0 0 0 3 7 6 12 23 39 57 23 37 31 24 11 4 17 14 6 2 5 6 1 43 346 256 189 557 760 507 699 356
0 0 0 0 0 0 0 0 0 0 0 0 1 4 6 5 8 13 41 50 48 56 39 36 18 12 9 19 15 8 8 19 23 106 33 221 261 141 147 191 205 1081 1238
0 0 0 0 0 0 0 0 0 0 0 0 1 3 2 6 9 22 42 65 55 58 87 32 14 20 13 15 7 15 10 8 4 83 158 166 173 170 160 263 250 498 1406
0 0 0 0 0 0 0 0 0 0 0 2 3 4 5 7 11 21 37 46 51 56 59 31 17 7 16 19 13 14 9 19 12 4 27 59 131 140 141 164 206 304 664
0 0 0 0 0 0 0 0 0 0 0 0 5 8 10 12 15 22 31 45 45 46 65 23 14 6 14 14 15 16 12 5 9 11 6 4 116 127 128 164 17 197 212
0 0 0 0 0 0 0 0 0 0 0 1 6 9 13 16 19 22 10 2 22 41 53 23 3 4 10 12 12 16 21 26 19 13 13 3 6 2 82 128 93 72 221

GFSSE_con_sbcape_291.txt.gz
CAPE
0 0 0 0 3 8 12 15 15 13 13 12 12 7 3 5 5 1 13 17 35 105 345 771 984 1195 1128 1109 1608 1765 1602 1352 1733 1720 1604 1292 1248 1256 1231 1387 1012 276 523
0 0 0 0 1 6 8 9 10 9 10 7 7 4 1 1 3 1 1 10 21 69 191 235 558 959 1170 1549 1620 1730 1621 1301 1395 1440 1587 1521 1452 1355 1202 1641 1035 623 1002
0 0 0 0 0 7 12 15 12 8 6 5 5 4 1 1 1 3 0 0 5 15 55 185 158 189 184 658 1399 1574 1487 1402 1282 1383 1666 965 982 1409 758 1274 1055 1421 1477
0 0 0 0 0 4 5 8 10 7 4 3 1 0 0 1 3 3 3 3 2 4 17 34 108 76 55 31 240 1162 1448 1269 1226 1362 1109 1199 958 979 692 499 1473 1642 1508
0 0 0 0 0 0 0 1 5 4 2 2 3 2 1 0 2 1 1 4 6 6 10 23 38 27 17 13 12 108 920 1308 1214 1172 989 1116 1179 994 884 1379 1695 1681 1690
0 0 0 0 0 0 0 0 2 2 4 3 3 3 2 1 0 0 0 1 4 7 8 11 14 23 23 14 13 8 36 687 1093 1179 1261 1202 1270 1455 1346 1755 1379 1507 1206
0 0 0 0 0 0 0 0 0 1 2 2 1 0 0 0 0 0 0 0 4 7 6 4 9 12 19 19 13 10 5 31 973 1084 1496 1272 1178 1435 1673 1807 1568 1351 1375
0 0 0 0 0 0 0 0 0 0 0 0 0 0 0 0 0 0 0 0 2 5 5 5 4 4 11 20 18 12 6 5 521 1346 1231 1520 1034 1960 2096 1881 1626 1380 1400
0 0 0 0 0 0 0 0 0 0 0 0 0 0 0 0 0 0 0 0 0 0 0 2 3 1 3 6 15 16 11 5 8 1687 1221 1071 1078 1886 2378 1904 1699 1533 1424
0 0 0 0 0 0 0 0 0 0 0 0 0 0 0 0 0 0 0 0 0 0 0 0 0 0 0 0 6 22 12 4 72 1107 1135 1029 1140 1740 2301 1990 1759 1535 1463
0 0 0 0 0 0 0 0 0 0 0 0 0 0 0 0 0 0 0 0 0 0 0 0 0 0 0 0 0 9 14 11 4 670 1293 1062 959 1795 2260 1840 1497 1308 1579
0 0 0 0 0 0 0 0 0 0 0 0 0 0 0 0 0 0 0 0 0 0 0 0 0 0 0 0 0 1 21 14 5 5 1302 1004 924 1659 2413 1766 1415 1243 1480
0 0 0 0 0 0 0 0 0 0 0 0 0 0 0 0 0 0 0 0 0 0 0 0 0 0 0 0 0 6 10 11 8 10 43 741 718 1535 2359 1823 1591 1362 1530
0 0 0 0 0 0 0 0 0 0 0 0 0 0 3 4 1 0 0 0 0 1 3 0 0 2 0 0 0 0 2 9 14 10 9 6 415 1210 2140 1881 1805 1642 1490
0 0 0 0 0 0 0 0 0 0 0 0 0 0 5 5 5 3 4 3 2 4 7 5 3 4 1 0 0 0 0 9 9 16 18 3 58 682 1696 1901 1915 1760 1554
0 0 0 0 0 0 0 0 0 0 0 0 0 1 7 10 15 9 8 6 9 11 19 14 15 10 6 3 0 0 0 1 15 14 24 11 4 348 1030 1656 1723 1772 1768
0 0 0 0 0 0 0 0 0 0 0 0 0 1 5 10 16 16 13 14 23 22 20 21 20 22 15 4 0 2 0 1 9 18 28 11 3 7 414 966 1316 1484 1610
0 0 0 0 0 0 0 0 0 0 0 0 0 0 5 13 19 21 21 33 48 42 52 49 52 28 20 8 17 11 5 4 15 18 19 11 3 25 186 544 1008 1089 1232
0 0 0 0 0 0 0 0 0 0 0 0 0 0 7 18 28 39 38 38 69 65 60 56 60 48 41 53 18 22 14 15 3 11 9 4 1 1 624 240 549 698 913
0 0 0 0 0 0 0 0 0 0 0 0 0 1 17 26 43 36 55 50 54 76 60 62 64 56 66 55 15 9 22 13 2 17 18 8 5 4 413 700 513 575 492
0 0 0 0 0 0 0 0 0 0 0 0 0 9 24 43 28 26 40 51 54 55 80 69 55 60 26 20 15 13 9 3 1 17 32 7 4 25 14 932 722 1058 299
0 0 0 0 0 0 0 0 0 0 0 1 3 9 28 46 26 26 48 51 64 77 68 80 60 44 22 17 19 15 9 1 0 0 15 16 6 6 5 363 892 932 348
0 0 0 0 0 0 0 0 1 0 0 0 4 13 32 41 34 31 41 53 57 92 92 72 60 22 30 20 14 43 25 12 13 0 5 34 10 1 2 2 443 626 394
0 0 0 0 0 0 0 0 6 4 3 4 8 19 26 32 24 33 34 27 48 67 48 32 28 30 29 27 16 21 21 19 22 8 0 12 13 6 5 10 34 507 348
0 0 0 0 0 0 0 3 9 9 7 5 11 20 31 20 32 30 25 37 51 83 39 39 35 39 48 37 25 16 26 15 22 25 10 10 0 3 11 3 55 164 368
0 0 0 0 0 0 0 6 11 15 13 9 15 22 21 19 31 37 19 43 45 54 53 58 55 47 54 35 31 20 26 35 25 32 16 10 8 5 2 0 110 140 270